GIA8099 WAAA-WIMM

Flight info

Callsign GIA8099
Flight time 2h 51m
Altitude 38000
Route GURNI W35 PNK L504 OBDOS M774 OTLAL DCT TPG A464 IRTAD DCT SAMKO R469 ASUNA L762 AKPAG
Aircraft B77W/H-SDE1E2E3FGHIJ2J3J4J5M1RWXY/LB1D1

Departure

Time 2026-04-24 06:40
Airport Sultan Hasanuddin International Airport (WAAA)

Arrival

Time 2026-04-24 09:32
Airport Kualanamu International Airport (WIMM)
Time Latitude Longitude Altitude Speed Heading
2026-04-24 06:23 -5.07874 119.54865 46 ft 0 kts 120°
2026-04-24 06:33 -5.07871 119.54859 46 ft 4 kts 118°
2026-04-24 06:34 -5.07860 119.54836 42 ft 4 kts 136°
2026-04-24 06:34 -5.07841 119.54826 42 ft 4 kts 177°
2026-04-24 06:34 -5.07819 119.54834 41 ft 4 kts 218°
2026-04-24 06:34 -5.07807 119.54843 41 ft 1 kts 210°
2026-04-24 06:35 -5.07805 119.54844 43 ft 0 kts 210°
2026-04-24 06:36 -5.07849 119.54819 42 ft 23 kts 210°
2026-04-24 06:37 -5.07994 119.54756 46 ft 19 kts 166°
2026-04-24 06:37 -5.08136 119.54829 46 ft 27 kts 204°
2026-04-24 06:37 -5.08382 119.54687 46 ft 54 kts 210°
2026-04-24 06:37 -5.08637 119.54543 46 ft 48 kts 209°
2026-04-24 06:38 -5.08927 119.54375 46 ft 35 kts 209°
2026-04-24 06:38 -5.09130 119.54288 46 ft 15 kts 168°
2026-04-24 06:38 -5.09154 119.54301 46 ft 0 kts 142°
2026-04-24 06:39 -5.09155 119.54301 46 ft 3 kts 142°
2026-04-24 06:39 -5.09203 119.54381 46 ft 13 kts 87°
2026-04-24 06:39 -5.09143 119.54452 47 ft 9 kts 32°
2026-04-24 06:39 -5.09137 119.54456 48 ft 1 kts 31°
2026-04-24 06:40 -5.09134 119.54457 48 ft 1 kts 31°
2026-04-24 06:40 -5.09052 119.54506 49 ft 32 kts 30°
2026-04-24 06:40 -5.08621 119.54751 47 ft 128 kts 30°
2026-04-24 06:40 -5.07601 119.55350 660 ft 182 kts 26°
2026-04-24 06:41 -5.06535 119.55979 2205 ft 172 kts 24°
2026-04-24 06:41 -5.05364 119.56146 2762 ft 183 kts 342°
2026-04-24 06:41 -5.04152 119.55531 3025 ft 208 kts 338°
2026-04-24 06:41 -5.02630 119.55303 3233 ft 238 kts 357°
2026-04-24 06:42 -5.00888 119.55185 3640 ft 258 kts 355°
2026-04-24 06:42 -4.99696 119.55072 4003 ft 263 kts 355°
2026-04-24 06:42 -4.97851 119.54883 4644 ft 269 kts 355°
2026-04-24 06:42 -4.95979 119.54685 5250 ft 276 kts 356°
2026-04-24 06:43 -4.93418 119.54410 6131 ft 280 kts 355°
2026-04-24 06:43 -4.92108 119.54269 6570 ft 282 kts 356°
2026-04-24 06:43 -4.89508 119.53988 7417 ft 285 kts 355°
2026-04-24 06:43 -4.87526 119.53774 8052 ft 288 kts 356°
2026-04-24 06:44 -4.85525 119.53558 8700 ft 291 kts 355°
2026-04-24 06:44 -4.83526 119.53232 9239 ft 294 kts 341°
2026-04-24 06:44 -4.81804 119.52100 9698 ft 304 kts 310°
2026-04-24 06:44 -4.81036 119.50886 10035 ft 307 kts 294°
2026-04-24 06:45 -4.80253 119.48871 10237 ft 324 kts 291°
2026-04-24 06:45 -4.79174 119.45912 10434 ft 352 kts 290°
2026-04-24 06:45 -4.78601 119.44321 10548 ft 366 kts 290°
2026-04-24 06:45 -4.77713 119.41854 10784 ft 384 kts 290°
2026-04-24 06:46 -4.76793 119.39305 11265 ft 393 kts 290°
2026-04-24 06:46 -4.75863 119.36745 11853 ft 399 kts 290°
2026-04-24 06:46 -4.74907 119.34121 12572 ft 401 kts 290°
2026-04-24 06:46 -4.73941 119.31483 13296 ft 404 kts 290°
2026-04-24 06:47 -4.72966 119.28826 13939 ft 408 kts 290°
2026-04-24 06:47 -4.71981 119.26146 14482 ft 413 kts 290°
2026-04-24 06:47 -4.70982 119.23430 15077 ft 416 kts 290°
2026-04-24 06:47 -4.69981 119.20710 15701 ft 419 kts 290°
2026-04-24 06:48 -4.68964 119.17947 16299 ft 422 kts 290°
2026-04-24 06:48 -4.67943 119.15171 16870 ft 426 kts 290°
2026-04-24 06:48 -4.66911 119.12369 17439 ft 430 kts 290°
2026-04-24 06:48 -4.65874 119.09551 18001 ft 433 kts 290°
2026-04-24 06:49 -4.64826 119.06704 18471 ft 437 kts 290°
2026-04-24 06:49 -4.63768 119.03830 18944 ft 441 kts 290°
2026-04-24 06:49 -4.62702 119.00936 19413 ft 444 kts 290°
2026-04-24 06:49 -4.61630 118.98025 19885 ft 447 kts 290°
2026-04-24 06:50 -4.60550 118.95091 20345 ft 451 kts 290°
2026-04-24 06:50 -4.59458 118.92127 20778 ft 454 kts 290°
2026-04-24 06:50 -4.58357 118.89139 21237 ft 458 kts 290°
2026-04-24 06:50 -4.57251 118.86137 21687 ft 461 kts 290°
2026-04-24 06:51 -4.56136 118.83111 22116 ft 465 kts 290°
2026-04-24 06:51 -4.55013 118.80064 22537 ft 468 kts 290°
2026-04-24 06:51 -4.53897 118.77036 22947 ft 471 kts 290°
2026-04-24 06:51 -4.52758 118.73947 23352 ft 474 kts 290°
2026-04-24 06:52 -4.51611 118.70831 23696 ft 477 kts 290°
2026-04-24 06:52 -4.50459 118.67701 24037 ft 480 kts 290°
2026-04-24 06:52 -4.49300 118.64552 24388 ft 482 kts 290°
2026-04-24 06:52 -4.48137 118.61390 24744 ft 484 kts 290°
2026-04-24 06:53 -4.46968 118.58211 25082 ft 487 kts 290°
2026-04-24 06:53 -4.45793 118.55021 25408 ft 490 kts 290°
2026-04-24 06:53 -4.44614 118.51816 25722 ft 492 kts 291°
2026-04-24 06:53 -4.43425 118.48587 26048 ft 495 kts 291°
2026-04-24 06:54 -4.42232 118.45345 26366 ft 497 kts 291°
2026-04-24 06:54 -4.41029 118.42079 26685 ft 499 kts 291°
2026-04-24 06:54 -4.39824 118.38808 27000 ft 502 kts 291°
2026-04-24 06:54 -4.38615 118.35521 27297 ft 504 kts 291°
2026-04-24 06:55 -4.37400 118.32218 27615 ft 506 kts 291°
2026-04-24 06:55 -4.36183 118.28903 27912 ft 508 kts 291°
2026-04-24 06:55 -4.34957 118.25567 28182 ft 511 kts 291°
2026-04-24 06:55 -4.33728 118.22221 28434 ft 513 kts 291°
2026-04-24 06:56 -4.32493 118.18861 28701 ft 515 kts 291°
2026-04-24 06:56 -4.31254 118.15489 28948 ft 517 kts 291°
2026-04-24 06:56 -4.30007 118.12097 29230 ft 518 kts 291°
2026-04-24 06:56 -4.28763 118.08714 29587 ft 518 kts 291°
2026-04-24 06:57 -4.27519 118.05329 29967 ft 516 kts 291°
2026-04-24 06:57 -4.26279 118.01959 30307 ft 515 kts 291°
2026-04-24 06:57 -4.25054 117.98630 30586 ft 515 kts 291°
2026-04-24 06:57 -4.23799 117.95218 30858 ft 516 kts 291°
2026-04-24 06:58 -4.22558 117.91845 31151 ft 516 kts 291°
2026-04-24 06:58 -4.21318 117.88475 31438 ft 516 kts 291°
2026-04-24 06:58 -4.20076 117.85103 31742 ft 516 kts 291°
2026-04-24 06:58 -4.18853 117.81781 32021 ft 516 kts 291°
2026-04-24 06:59 -4.17613 117.78412 32296 ft 516 kts 291°
2026-04-24 06:59 -4.16371 117.75039 32575 ft 516 kts 291°
2026-04-24 06:59 -4.15129 117.71667 32861 ft 516 kts 291°
2026-04-24 06:59 -4.13890 117.68304 33138 ft 515 kts 291°
2026-04-24 07:00 -4.12646 117.64927 33412 ft 516 kts 291°
2026-04-24 07:00 -4.11406 117.61561 33672 ft 516 kts 291°
2026-04-24 07:00 -4.10164 117.58189 33917 ft 515 kts 291°
2026-04-24 07:00 -4.08924 117.54826 34190 ft 514 kts 291°
2026-04-24 07:01 -4.07687 117.51470 34484 ft 512 kts 291°
2026-04-24 07:01 -4.06461 117.48143 34798 ft 509 kts 291°
2026-04-24 07:01 -4.05235 117.44818 35070 ft 508 kts 291°
2026-04-24 07:01 -4.04011 117.41497 35217 ft 509 kts 291°
2026-04-24 07:02 -4.02782 117.38168 35325 ft 511 kts 291°
2026-04-24 07:02 -4.01546 117.34814 35428 ft 513 kts 291°
2026-04-24 07:02 -4.00307 117.31455 35555 ft 514 kts 291°
2026-04-24 07:02 -3.99068 117.28097 35702 ft 514 kts 291°
2026-04-24 07:03 -3.97902 117.24714 35836 ft 515 kts 287°
2026-04-24 07:03 -3.97033 117.21226 35944 ft 516 kts 283°
2026-04-24 07:03 -3.96300 117.17752 36043 ft 517 kts 282°
2026-04-24 07:03 -3.95577 117.14224 36190 ft 517 kts 282°
2026-04-24 07:04 -3.94854 117.10695 36347 ft 516 kts 282°
2026-04-24 07:04 -3.93383 117.03640 36495 ft 518 kts 283°
2026-04-24 07:05 -3.91875 116.96566 36628 ft 520 kts 283°
2026-04-24 07:05 -3.90353 116.89485 36794 ft 521 kts 283°
2026-04-24 07:06 -3.88828 116.82386 36971 ft 520 kts 283°
2026-04-24 07:06 -3.87307 116.75299 37106 ft 521 kts 283°
2026-04-24 07:07 -3.85784 116.68198 37179 ft 522 kts 283°
2026-04-24 07:07 -3.83502 116.57567 37327 ft 523 kts 283°
2026-04-24 07:08 -3.81972 116.50445 37453 ft 523 kts 283°
2026-04-24 07:08 -3.80440 116.43317 37516 ft 523 kts 283°
2026-04-24 07:09 -3.78906 116.36183 37553 ft 524 kts 283°
2026-04-24 07:09 -3.77371 116.29047 37645 ft 524 kts 283°
2026-04-24 07:10 -3.75838 116.21923 37765 ft 523 kts 282°
2026-04-24 07:10 -3.74320 116.14868 37790 ft 522 kts 282°
2026-04-24 07:11 -3.72790 116.07760 37800 ft 521 kts 282°
2026-04-24 07:11 -3.71261 116.00666 37797 ft 522 kts 282°
2026-04-24 07:12 -3.69730 115.93561 37793 ft 522 kts 283°
2026-04-24 07:12 -3.68197 115.86450 37797 ft 522 kts 283°
2026-04-24 07:13 -3.66662 115.79335 37799 ft 523 kts 283°
2026-04-24 07:13 -3.65126 115.72217 37799 ft 523 kts 283°
2026-04-24 07:14 -3.63588 115.65091 37795 ft 523 kts 283°
2026-04-24 07:14 -3.62058 115.58008 37801 ft 524 kts 282°
2026-04-24 07:15 -3.60518 115.50878 37793 ft 524 kts 282°
2026-04-24 07:15 -3.58976 115.43744 37797 ft 524 kts 282°
2026-04-24 07:16 -3.57436 115.36619 37791 ft 524 kts 282°
2026-04-24 07:16 -3.55892 115.29482 37796 ft 524 kts 282°
2026-04-24 07:17 -3.54351 115.22358 37785 ft 524 kts 282°
2026-04-24 07:17 -3.52808 115.15229 37782 ft 524 kts 282°
2026-04-24 07:18 -3.51266 115.08109 37780 ft 523 kts 282°
2026-04-24 07:18 -3.49724 115.00991 37780 ft 523 kts 282°
2026-04-24 07:19 -3.48181 114.93870 37778 ft 523 kts 282°
2026-04-24 07:19 -3.46638 114.86751 37777 ft 523 kts 282°
2026-04-24 07:20 -3.45106 114.79683 37779 ft 523 kts 282°
2026-04-24 07:20 -3.42908 114.72766 37772 ft 522 kts 294°
2026-04-24 07:21 -3.39545 114.66337 37774 ft 521 kts 303°
2026-04-24 07:21 -3.35660 114.60224 37777 ft 521 kts 303°
2026-04-24 07:22 -3.31763 114.54113 37773 ft 521 kts 303°
2026-04-24 07:22 -3.27901 114.47979 37773 ft 521 kts 303°
2026-04-24 07:23 -3.24075 114.41863 37772 ft 521 kts 302°
2026-04-24 07:23 -3.20225 114.35707 37775 ft 521 kts 303°
2026-04-24 07:24 -3.16403 114.29601 37772 ft 521 kts 303°
2026-04-24 07:24 -3.12557 114.23461 37773 ft 521 kts 303°
2026-04-24 07:25 -3.08708 114.17318 37773 ft 521 kts 303°
2026-04-24 07:25 -3.04858 114.11174 37773 ft 521 kts 303°
2026-04-24 07:26 -3.01009 114.05031 37769 ft 521 kts 303°
2026-04-24 07:26 -2.97162 113.98895 37773 ft 521 kts 303°
2026-04-24 07:27 -2.93317 113.92761 37775 ft 521 kts 303°
2026-04-24 07:27 -2.89468 113.86622 37769 ft 521 kts 303°
2026-04-24 07:28 -2.85643 113.80521 37769 ft 521 kts 303°
2026-04-24 07:28 -2.81793 113.74383 37774 ft 521 kts 303°
2026-04-24 07:29 -2.77945 113.68248 37771 ft 521 kts 303°
2026-04-24 07:29 -2.74091 113.62104 37772 ft 521 kts 303°
2026-04-24 07:30 -2.70891 113.57004 37772 ft 521 kts 303°
2026-04-24 07:30 -2.67041 113.50867 37772 ft 521 kts 303°
2026-04-24 07:31 -2.62566 113.43735 37772 ft 521 kts 303°
2026-04-24 07:31 -2.59336 113.38588 37767 ft 521 kts 303°
2026-04-24 07:32 -2.55488 113.32443 37775 ft 521 kts 303°
2026-04-24 07:32 -2.51657 113.26319 37778 ft 522 kts 303°
2026-04-24 07:33 -2.47808 113.20166 37769 ft 522 kts 303°
2026-04-24 07:33 -2.43957 113.14013 37773 ft 522 kts 303°
2026-04-24 07:34 -2.40110 113.07867 37774 ft 522 kts 303°
2026-04-24 07:34 -2.36261 113.01718 37774 ft 521 kts 303°
2026-04-24 07:35 -2.32402 112.95555 37776 ft 521 kts 303°
2026-04-24 07:35 -2.28579 112.89450 37774 ft 521 kts 303°
2026-04-24 07:36 -2.24728 112.83301 37779 ft 521 kts 303°
2026-04-24 07:36 -2.20880 112.77157 37776 ft 521 kts 303°
2026-04-24 07:37 -2.17028 112.71008 37775 ft 521 kts 303°
2026-04-24 07:37 -2.13178 112.64863 37779 ft 521 kts 303°
2026-04-24 07:38 -2.09325 112.58713 37779 ft 521 kts 303°
2026-04-24 07:38 -2.05474 112.52568 37777 ft 521 kts 303°
2026-04-24 07:39 -2.01628 112.46431 37777 ft 521 kts 303°
2026-04-24 07:39 -1.97773 112.40280 37780 ft 521 kts 303°
2026-04-24 07:40 -1.93920 112.34133 37781 ft 521 kts 303°
2026-04-24 07:40 -1.90092 112.28026 37780 ft 521 kts 303°
2026-04-24 07:41 -1.86240 112.21882 37781 ft 521 kts 303°
2026-04-24 07:41 -1.82388 112.15739 37788 ft 521 kts 303°
2026-04-24 07:42 -1.78537 112.09598 37788 ft 521 kts 303°
2026-04-24 07:42 -1.74689 112.03462 37787 ft 521 kts 303°
2026-04-24 07:43 -1.70836 111.97319 37784 ft 521 kts 303°
2026-04-24 07:43 -1.66982 111.91175 37794 ft 521 kts 303°
2026-04-24 07:44 -1.63160 111.85080 37786 ft 521 kts 303°
2026-04-24 07:44 -1.59312 111.78947 37793 ft 520 kts 303°
2026-04-24 07:45 -1.55463 111.72812 37792 ft 520 kts 303°
2026-04-24 07:45 -1.51622 111.66688 37788 ft 519 kts 303°
2026-04-24 07:46 -1.47786 111.60574 37796 ft 518 kts 303°
2026-04-24 07:46 -1.43951 111.54478 37788 ft 518 kts 303°
2026-04-24 07:47 -1.40133 111.48437 37800 ft 517 kts 303°
2026-04-24 07:47 -1.36295 111.42362 37792 ft 516 kts 303°
2026-04-24 07:48 -1.32459 111.36288 37789 ft 516 kts 303°
2026-04-24 07:48 -1.28633 111.30225 37787 ft 515 kts 303°
2026-04-24 07:49 -1.24807 111.24163 37788 ft 515 kts 303°
2026-04-24 07:49 -1.20987 111.18112 37793 ft 514 kts 303°
2026-04-24 07:50 -1.17188 111.12095 37790 ft 514 kts 304°
2026-04-24 07:50 -1.13370 111.06048 37785 ft 514 kts 304°
2026-04-24 07:51 -1.09553 111.00003 37788 ft 514 kts 303°
2026-04-24 07:51 -1.05732 110.93952 37782 ft 514 kts 303°
2026-04-24 07:52 -1.01921 110.87916 37776 ft 514 kts 303°
2026-04-24 07:52 -0.98112 110.81882 37770 ft 513 kts 303°
2026-04-24 07:53 -0.94302 110.75848 37772 ft 512 kts 303°
2026-04-24 07:53 -0.90506 110.69837 37760 ft 511 kts 303°
2026-04-24 07:54 -0.86733 110.63813 37763 ft 511 kts 303°
2026-04-24 07:54 -0.82980 110.57788 37763 ft 510 kts 303°
2026-04-24 07:55 -0.79226 110.51765 37760 ft 510 kts 303°
2026-04-24 07:55 -0.75502 110.45795 37760 ft 510 kts 303°
2026-04-24 07:56 -0.71744 110.39775 37762 ft 510 kts 303°
2026-04-24 07:56 -0.67986 110.33755 37759 ft 510 kts 303°
2026-04-24 07:57 -0.64229 110.27735 37759 ft 510 kts 303°
2026-04-24 07:57 -0.60495 110.21753 37758 ft 510 kts 303°
2026-04-24 07:58 -0.56737 110.15733 37758 ft 510 kts 303°
2026-04-24 07:58 -0.52985 110.09722 37757 ft 510 kts 303°
2026-04-24 07:59 -0.49225 110.03700 37757 ft 511 kts 303°
2026-04-24 07:59 -0.45466 109.97677 37756 ft 511 kts 303°
2026-04-24 08:00 -0.41704 109.91652 37758 ft 511 kts 303°
2026-04-24 08:00 -0.37937 109.85618 37759 ft 511 kts 303°
2026-04-24 08:01 -0.34194 109.79623 37750 ft 512 kts 303°
2026-04-24 08:01 -0.30421 109.73578 37754 ft 512 kts 303°
2026-04-24 08:02 -0.26650 109.67538 37752 ft 513 kts 303°
2026-04-24 08:02 -0.22863 109.61472 37753 ft 513 kts 303°
2026-04-24 08:03 -0.19077 109.55407 37751 ft 514 kts 303°
2026-04-24 08:03 -0.15317 109.49382 37749 ft 514 kts 303°
2026-04-24 08:04 -0.11529 109.43316 37748 ft 515 kts 303°
2026-04-24 08:04 -0.08275 109.36935 37742 ft 516 kts 291°
2026-04-24 08:05 -0.06216 109.30080 37750 ft 517 kts 282°
2026-04-24 08:05 -0.04798 109.23030 37762 ft 517 kts 282°
2026-04-24 08:06 -0.03368 109.15982 37774 ft 518 kts 282°
2026-04-24 08:06 -0.01894 109.08974 37784 ft 518 kts 282°
2026-04-24 08:07 -0.00404 109.01925 37793 ft 518 kts 282°
2026-04-24 08:07 0.01058 108.94876 37790 ft 518 kts 282°
2026-04-24 08:08 0.02480 108.87803 37793 ft 518 kts 282°
2026-04-24 08:09 0.04609 108.77201 37800 ft 519 kts 282°
2026-04-24 08:09 0.06027 108.70178 37798 ft 519 kts 282°
2026-04-24 08:10 0.07456 108.63110 37798 ft 519 kts 282°
2026-04-24 08:10 0.08886 108.56038 37797 ft 519 kts 282°
2026-04-24 08:11 0.10316 108.48963 37800 ft 519 kts 282°
2026-04-24 08:11 0.11746 108.41886 37797 ft 519 kts 282°
2026-04-24 08:12 0.13176 108.34810 37800 ft 519 kts 282°
2026-04-24 08:12 0.14605 108.27736 37800 ft 519 kts 282°
2026-04-24 08:13 0.16033 108.20667 37798 ft 519 kts 282°
2026-04-24 08:13 0.17464 108.13587 37800 ft 519 kts 282°
2026-04-24 08:14 0.18891 108.06521 37802 ft 519 kts 282°
2026-04-24 08:14 0.20312 107.99491 37802 ft 519 kts 282°
2026-04-24 08:15 0.21740 107.92420 37804 ft 519 kts 282°
2026-04-24 08:15 0.23170 107.85343 37801 ft 519 kts 282°
2026-04-24 08:16 0.24600 107.78268 37801 ft 519 kts 282°
2026-04-24 08:16 0.26027 107.71204 37802 ft 519 kts 281°
2026-04-24 08:17 0.27454 107.64138 37802 ft 518 kts 281°
2026-04-24 08:17 0.28873 107.57113 37798 ft 518 kts 281°
2026-04-24 08:18 0.30297 107.50061 37801 ft 518 kts 281°
2026-04-24 08:18 0.31724 107.42997 37802 ft 518 kts 281°
2026-04-24 08:19 0.32909 107.37135 37799 ft 518 kts 281°
2026-04-24 08:19 0.34335 107.30071 37805 ft 518 kts 281°
2026-04-24 08:20 0.35762 107.23008 37803 ft 519 kts 281°
2026-04-24 08:20 0.37189 107.15941 37800 ft 519 kts 281°
2026-04-24 08:21 0.38848 107.07722 37801 ft 519 kts 281°
2026-04-24 08:21 0.40046 107.01792 37810 ft 519 kts 281°
2026-04-24 08:22 0.41466 106.94755 37808 ft 519 kts 281°
2026-04-24 08:22 0.42892 106.87688 37810 ft 519 kts 281°
2026-04-24 08:23 0.44314 106.80623 37805 ft 518 kts 281°
2026-04-24 08:23 0.45734 106.73564 37803 ft 518 kts 281°
2026-04-24 08:24 0.47152 106.66512 37802 ft 517 kts 281°
2026-04-24 08:24 0.48571 106.59462 37807 ft 517 kts 281°
2026-04-24 08:25 0.49989 106.52415 37809 ft 517 kts 281°
2026-04-24 08:25 0.51406 106.45368 37806 ft 517 kts 281°
2026-04-24 08:26 0.52822 106.38332 37808 ft 517 kts 281°
2026-04-24 08:26 0.54230 106.31330 37805 ft 517 kts 281°
2026-04-24 08:27 0.55656 106.24244 37807 ft 517 kts 281°
2026-04-24 08:27 0.57060 106.17259 37810 ft 516 kts 281°
2026-04-24 08:28 0.58477 106.10217 37809 ft 516 kts 281°
2026-04-24 08:28 0.59890 106.03190 37810 ft 516 kts 281°
2026-04-24 08:29 0.61303 105.96163 37814 ft 515 kts 281°
2026-04-24 08:29 0.62714 105.89146 37809 ft 514 kts 281°
2026-04-24 08:30 0.64122 105.82141 37805 ft 513 kts 281°
2026-04-24 08:30 0.65526 105.75157 37811 ft 512 kts 281°
2026-04-24 08:31 0.66929 105.68179 37813 ft 511 kts 281°
2026-04-24 08:31 0.68329 105.61214 37815 ft 511 kts 281°
2026-04-24 08:32 0.69724 105.54268 37811 ft 510 kts 281°
2026-04-24 08:32 0.71121 105.47323 37811 ft 509 kts 281°
2026-04-24 08:33 0.72510 105.40428 37811 ft 509 kts 281°
2026-04-24 08:33 0.73905 105.33500 37817 ft 508 kts 281°
2026-04-24 08:34 0.75298 105.26583 37812 ft 508 kts 281°
2026-04-24 08:34 0.76690 105.19663 37809 ft 507 kts 281°
2026-04-24 08:35 0.78084 105.12739 37814 ft 507 kts 281°
2026-04-24 08:35 0.79476 105.05820 37813 ft 507 kts 281°
2026-04-24 08:36 0.80866 104.98910 37813 ft 507 kts 281°
2026-04-24 08:36 0.82258 104.91991 37807 ft 508 kts 281°
2026-04-24 08:37 0.83651 104.85069 37802 ft 508 kts 281°
2026-04-24 08:37 0.85034 104.78191 37807 ft 509 kts 281°
2026-04-24 08:38 0.86428 104.71260 37808 ft 509 kts 281°
2026-04-24 08:38 0.87824 104.64315 37806 ft 510 kts 281°
2026-04-24 08:39 0.89220 104.57371 37802 ft 510 kts 281°
2026-04-24 08:39 0.90988 104.50504 37806 ft 511 kts 289°
2026-04-24 08:40 0.93883 104.44023 37808 ft 511 kts 296°
2026-04-24 08:40 0.97031 104.37653 37801 ft 511 kts 295°
2026-04-24 08:41 1.00122 104.31248 37797 ft 511 kts 295°
2026-04-24 08:41 1.03189 104.24836 37802 ft 511 kts 294°
2026-04-24 08:42 1.05565 104.18169 37806 ft 510 kts 283°
2026-04-24 08:42 1.06738 104.11249 37802 ft 508 kts 275°
2026-04-24 08:43 1.07439 104.04217 37801 ft 508 kts 275°
2026-04-24 08:43 1.08193 103.97187 37800 ft 508 kts 275°
2026-04-24 08:44 1.08921 103.90163 37805 ft 507 kts 271°
2026-04-24 08:44 1.08657 103.83136 37801 ft 505 kts 261°
2026-04-24 08:45 1.07684 103.76199 37797 ft 505 kts 261°
2026-04-24 08:45 1.06736 103.69290 37786 ft 505 kts 261°
2026-04-24 08:46 1.05824 103.62317 37788 ft 505 kts 262°
2026-04-24 08:46 1.04922 103.55347 37787 ft 505 kts 262°
2026-04-24 08:47 1.04013 103.48378 37774 ft 505 kts 262°
2026-04-24 08:47 1.03074 103.41423 37778 ft 505 kts 261°
2026-04-24 08:48 1.02133 103.34507 37782 ft 506 kts 261°
2026-04-24 08:48 1.01191 103.27537 37777 ft 506 kts 261°
2026-04-24 08:49 1.00323 103.20562 37770 ft 507 kts 267°
2026-04-24 08:49 1.00977 103.13561 37779 ft 507 kts 282°
2026-04-24 08:50 1.03288 103.06905 37791 ft 508 kts 291°
2026-04-24 08:50 1.05951 103.00356 37771 ft 509 kts 291°
2026-04-24 08:51 1.08581 102.93776 37768 ft 510 kts 291°
2026-04-24 08:51 1.11152 102.87217 37768 ft 510 kts 291°
2026-04-24 08:52 1.13732 102.80599 37773 ft 510 kts 290°
2026-04-24 08:52 1.16309 102.73987 37763 ft 511 kts 291°
2026-04-24 08:53 1.18890 102.67376 37765 ft 510 kts 291°
2026-04-24 08:53 1.21471 102.60768 37769 ft 510 kts 291°
2026-04-24 08:54 1.24037 102.54195 37774 ft 510 kts 291°
2026-04-24 08:54 1.26619 102.47582 37766 ft 510 kts 291°
2026-04-24 08:55 1.29197 102.40976 37765 ft 510 kts 291°
2026-04-24 08:55 1.31770 102.34383 37769 ft 509 kts 291°
2026-04-24 08:56 1.34331 102.27820 37762 ft 509 kts 291°
2026-04-24 08:56 1.36900 102.21236 37771 ft 508 kts 291°
2026-04-24 08:57 1.39498 102.14669 37769 ft 508 kts 293°
2026-04-24 08:57 1.42854 102.08468 37772 ft 507 kts 301°
2026-04-24 08:58 1.46532 102.02431 37771 ft 507 kts 301°
2026-04-24 08:58 1.50170 101.96424 37778 ft 508 kts 301°
2026-04-24 08:59 1.53805 101.90355 37779 ft 509 kts 300°
2026-04-24 08:59 1.57431 101.84272 37777 ft 509 kts 300°
2026-04-24 09:00 1.61055 101.78192 37778 ft 510 kts 300°
2026-04-24 09:00 1.64691 101.72094 37772 ft 510 kts 300°
2026-04-24 09:01 1.68324 101.66004 37795 ft 510 kts 301°
2026-04-24 09:01 1.71958 101.59911 37766 ft 510 kts 301°
2026-04-24 09:02 1.75590 101.53822 37763 ft 509 kts 301°
2026-04-24 09:02 1.79217 101.47739 37763 ft 509 kts 301°
2026-04-24 09:03 1.82839 101.41666 37760 ft 508 kts 301°
2026-04-24 09:03 1.86457 101.35597 37761 ft 508 kts 301°
2026-04-24 09:04 1.90047 101.29576 37756 ft 508 kts 301°
2026-04-24 09:04 1.93658 101.23518 37763 ft 507 kts 300°
2026-04-24 09:05 1.97271 101.17457 37759 ft 507 kts 301°
2026-04-24 09:05 2.00876 101.11407 37759 ft 507 kts 300°
2026-04-24 09:06 2.04480 101.05359 37761 ft 506 kts 300°
2026-04-24 09:06 2.08084 100.99311 37761 ft 506 kts 300°
2026-04-24 09:07 2.11077 100.94287 37769 ft 506 kts 301°
2026-04-24 09:07 2.16475 100.85226 37767 ft 506 kts 300°
2026-04-24 09:08 2.20073 100.79184 37770 ft 506 kts 300°
2026-04-24 09:08 2.23676 100.73134 37770 ft 506 kts 300°
2026-04-24 09:09 2.27275 100.67089 37766 ft 506 kts 300°
2026-04-24 09:09 2.30876 100.61039 37770 ft 505 kts 300°
2026-04-24 09:10 2.34466 100.55007 37771 ft 504 kts 300°
2026-04-24 09:10 2.38057 100.48984 37774 ft 503 kts 301°
2026-04-24 09:11 2.41624 100.43012 37773 ft 502 kts 301°
2026-04-24 09:11 2.45205 100.37017 37778 ft 501 kts 301°
2026-04-24 09:12 2.48776 100.31033 37775 ft 501 kts 301°
2026-04-24 09:12 2.52341 100.25057 37773 ft 500 kts 301°
2026-04-24 09:13 2.55904 100.19084 37782 ft 499 kts 301°
2026-04-24 09:13 2.59464 100.13115 37780 ft 499 kts 301°
2026-04-24 09:14 2.63022 100.07149 37778 ft 499 kts 301°
2026-04-24 09:14 2.66579 100.01182 37785 ft 501 kts 301°
2026-04-24 09:15 2.70164 99.95168 37793 ft 504 kts 301°
2026-04-24 09:15 2.73146 99.88835 37794 ft 504 kts 288°
2026-04-24 09:16 2.75199 99.82149 37784 ft 501 kts 286°
2026-04-24 09:16 2.77215 99.75492 37780 ft 499 kts 287°
2026-04-24 09:17 2.79320 99.68942 37784 ft 497 kts 288°
2026-04-24 09:17 2.81493 99.62352 37794 ft 499 kts 288°
2026-04-24 09:18 2.83676 99.55741 37795 ft 502 kts 288°
2026-04-24 09:18 2.85861 99.49096 37804 ft 504 kts 288°
2026-04-24 09:19 2.88053 99.42424 37796 ft 505 kts 287°
2026-04-24 09:19 2.90231 99.35787 37791 ft 504 kts 287°
2026-04-24 09:20 2.92787 99.28000 37792 ft 502 kts 287°
2026-04-24 09:20 2.94595 99.22490 37799 ft 501 kts 287°
2026-04-24 09:21 2.96765 99.15879 37800 ft 498 kts 287°
2026-04-24 09:21 2.98092 99.12691 37795 ft 496 kts 300°
2026-04-24 09:21 3.00211 99.09985 37807 ft 494 kts 316°
2026-04-24 09:22 3.02689 99.07652 37682 ft 484 kts 316°
2026-04-24 09:22 3.05134 99.05335 37237 ft 483 kts 316°
2026-04-24 09:22 3.07515 99.03035 36741 ft 482 kts 315°
2026-04-24 09:22 3.09934 99.00661 36267 ft 481 kts 315°
2026-04-24 09:23 3.12308 98.98304 35784 ft 480 kts 315°
2026-04-24 09:23 3.14631 98.95987 35145 ft 477 kts 315°
2026-04-24 09:23 3.16968 98.93654 34153 ft 470 kts 315°
2026-04-24 09:23 3.19267 98.91360 32932 ft 466 kts 315°
2026-04-24 09:24 3.21581 98.89054 31382 ft 470 kts 315°
2026-04-24 09:24 3.23906 98.86737 29676 ft 476 kts 314°
2026-04-24 09:24 3.26276 98.84376 27624 ft 484 kts 315°
2026-04-24 09:24 3.28533 98.82136 23242 ft 429 kts 315°
2026-04-24 09:25 3.31000 98.79655 18097 ft 491 kts 315°
2026-04-24 09:25 3.33104 98.76993 15979 ft 489 kts 301°
2026-04-24 09:25 3.34829 98.74217 13945 ft 455 kts 304°
2026-04-24 09:25 3.35590 98.73153 11793 ft 0 kts 320°
2026-04-24 09:26 3.36634 98.71887 10081 ft 369 kts 311°
2026-04-24 09:26 3.38642 98.70246 9361 ft 357 kts 328°
2026-04-24 09:26 3.40667 98.68998 9155 ft 330 kts 328°
2026-04-24 09:26 3.42648 98.67908 6447 ft 338 kts 341°
2026-04-24 09:27 3.45169 98.67982 4068 ft 373 kts 31°
2026-04-24 09:27 3.47252 98.69256 4154 ft 330 kts 23°
2026-04-24 09:27 3.48938 98.70207 4096 ft 0 kts 65°
2026-04-24 09:27 3.49712 98.71937 3951 ft 262 kts 65°
2026-04-24 09:28 3.50580 98.73454 3464 ft 245 kts 56°
2026-04-24 09:28 3.51617 98.74805 2555 ft 245 kts 51°
2026-04-24 09:28 3.52768 98.76080 1714 ft 250 kts 46°
2026-04-24 09:28 3.53833 98.77133 1377 ft 1431 kts 46°
2026-04-24 09:29 3.54451 98.77751 1308 ft 198 kts 46°
2026-04-24 09:29 3.55372 98.78666 1071 ft 174 kts 46°
2026-04-24 09:29 3.56136 98.79428 996 ft 165 kts 48°
2026-04-24 09:29 3.56995 98.80287 1006 ft 165 kts 47°
2026-04-24 09:30 3.57786 98.81075 985 ft 157 kts 46°
2026-04-24 09:30 3.58539 98.81826 964 ft 156 kts 47°
2026-04-24 09:30 3.59359 98.82645 850 ft 167 kts 45°
2026-04-24 09:30 3.60153 98.83436 708 ft 164 kts 46°
2026-04-24 09:31 3.60938 98.84221 523 ft 156 kts 43°
2026-04-24 09:31 3.61678 98.84959 296 ft 149 kts 46°
2026-04-24 09:31 3.62450 98.85731 123 ft 158 kts 45°
2026-04-24 09:31 3.63183 98.86480 48 ft 142 kts 45°
2026-04-24 09:32 3.63808 98.87101 41 ft 109 kts 43°
2026-04-24 09:32 3.64244 98.87535 39 ft 65 kts 45°
2026-04-24 09:32 3.64451 98.87784 40 ft 36 kts 68°
2026-04-24 09:32 3.64470 98.87842 41 ft 0 kts 72°
2026-04-24 09:33 3.64473 98.87852 41 ft 6 kts 72°
2026-04-24 09:34 3.64474 98.87853 41 ft 0 kts 72°
2026-04-24 09:34 3.64480 98.87883 41 ft 11 kts 83°
2026-04-24 09:34 3.64427 98.87978 44 ft 22 kts 136°
2026-04-24 09:34 3.64290 98.88118 45 ft 34 kts 135°
2026-04-24 09:35 3.64159 98.88183 45 ft 19 kts 203°
2026-04-24 09:35 3.64043 98.88080 45 ft 21 kts 225°
2026-04-24 09:35 3.63940 98.87971 45 ft 18 kts 243°
2026-04-24 09:35 3.63884 98.87886 45 ft 5 kts 225°
2026-04-24 09:36 3.63865 98.87868 45 ft 0 kts 224°